Showing default

GREB, 731

Orbit data source: Space-Track

GREB, 731 is an American payload satellite in LEO that was launched on Sat, 11 Jan 1964 UTC via a THOR SLV-2A AGENA D launch vehicle from the Air Force Western Test Range (AFWTR). Payload-class satellites include a variety of spacecraft equipped with specific instruments for various scientific and technological missions. These include communications satellites like Starlink; space stations such as the ISS; scientific satellites like the Hubble; Earth observation satellites from companies like Planet Labs, Umbra, and HawkEye 360; GPS; miniature CubeSats for education and research; and military/defense satellites.

Loading next visibility...
Identifier
731, 1964-001E
Orbit
LEO
Last TLE update
12 hours ago
Origin
Manufacturer
NRL
Mission
Defense Sigint
Bus & Motor
NRL 20", Unknown motor
Mass
29 kg wet, 29 kg dry
Launch date (UTC)
1964-01-11 (61 years ago)
Launch vehicle
THOR SLV-2A AGENA D
Launch site
Air Force Western Test Range (AFWTR)
Object type
Payload
Rocket body
Debris
Shape & HBR
Sphere, 0.5 m
Radar Cross Section
0.196 m², Medium (>0.1 m² and < 1m²)

Expand to show TLE details & history

TLE from 12 hours ago
0 GREB
1 00731U 64001E   25129.24722440  .00000031  00000-0  61474-4 0  9996
2 00731  69.9071  54.8991 0014564 197.8864 162.1730 13.96229328121193
Epoch: 2025-05-09T05:56Z
Definitive object data (Epoch: 2025-05-09T05:56:00.188Z)
Latitude
-0.00005°
Longitude
98.59219°
Altitude
919.291 km
Speed
7.387 km/s
True Right ascension
03h 39m 35s
True Declination
0° 00' 00"
Sunlit
Object was in daylight at TLE epoch
Visualization TLE readout
Latitude
69.5334°
Longitude
-159.68881°
Altitude
920.619 km
Speed
7.397 km/s
Apparent Right ascension
13h 14m 17s
Apparent Declination
22° 54' 50"
Sunlit
Object is in daylight
Visualization observer readout
Local Sidereal Time
02:36:02
Azimuth
20.671° NNE
Elevation
-24.341°
Doppler factor
1
Orbital elements
Apogee altitude
915.541 km
Perigee altitude
894.327 km
Semi-major axis
7,283.071 km
Eccentricity
0.0014564
Inclination
69.9071°
RAAN
54.8991°
Arg. of periapsis
197.8864°
True anomaly
162.224°
Mean anomaly
162.173°
Eccentric anomaly
162.19851°
Mean motion
3.49198 °/min
BSTAR
0.000061474
Orbital period
103.09 mins
Loading maneuver chart data...
Loading SW <> Apogee altitude chart data...
Loading historical data...
Loading historical data...
Loading historical data...
Loading historical data...
Loading historical data...
Loading historical data...
Loading historical data...
Other satellites on launch #1 in the year 1964 (1964-01-11 UTC)

GREB Visibility forecast

Observer location: undefined°, undefined°

Span
Click to sort rows by Start time (UTC) header in descending order
Start Az.
Max El. time (UTC)
Max El. Az.
Max El.
End time (UTC)
End Az.
10 mins2025-05-09 19:48:13.999Z171.912° S2025-05-09 19:53:13.999Z96.793° ESE33.752°2025-05-09 19:58:13.999Z39.001° NE
8 mins2025-05-09 21:35:13.999Z257.062° W2025-05-09 21:38:13.999Z298.814° NW26.952°2025-05-09 21:43:13.999Z2.85° NNE
7 mins2025-05-10 04:51:13.999Z10.95° NNE2025-05-10 04:54:13.999Z51.959° ENE24.137°2025-05-10 04:58:13.999Z102.96° ESE
9 mins2025-05-10 06:36:13.999Z318.008° NNW2025-05-10 06:40:13.999Z249.73° W37.165°2025-05-10 06:45:13.999Z180.423° SSW
|